TimeCST,TemperatureF,Dew PointF,Humidity,Sea Level PressureIn,VisibilityMPH,Wind Direction,Wind SpeedMPH,Gust SpeedMPH,PrecipitationIn,Events,Conditions,WindDirDegrees,DateUTC
12:15 AM,28.4,28.4,100,29.79,5.0,ENE,10.4,-,N/A,,Overcast,60,2013-12-04 06:15:00
12:35 AM,28.4,28.4,100,29.78,5.0,ENE,10.4,-,N/A,,Overcast,70,2013-12-04 06:35:00
12:55 AM,28.4,28.4,100,29.80,7.0,ENE,9.2,-,N/A,,Overcast,60,2013-12-04 06:55:00
1:15 AM,28.4,28.4,100,29.79,7.0,NE,10.4,-,N/A,,Overcast,50,2013-12-04 07:15:00
1:35 AM,28.4,28.4,100,29.78,5.0,ENE,12.7,-,N/A,,Overcast,60,2013-12-04 07:35:00
1:55 AM,28.4,28.4,100,29.78,7.0,ENE,10.4,-,N/A,,Overcast,60,2013-12-04 07:55:00
2:15 AM,28.4,28.4,100,29.79,7.0,ENE,10.4,-,N/A,,Overcast,60,2013-12-04 08:15:00
2:35 AM,28.4,28.4,100,29.79,7.0,ENE,9.2,-,N/A,,Overcast,60,2013-12-04 08:35:00
2:55 AM,28.4,28.4,100,29.79,10.0,NE,9.2,-,N/A,,Overcast,50,2013-12-04 08:55:00
3:15 AM,28.4,28.4,100,29.78,7.0,NE,9.2,-,N/A,,Overcast,50,2013-12-04 09:15:00
3:35 AM,28.4,28.4,100,29.76,5.0,ENE,11.5,-,N/A,,Overcast,60,2013-12-04 09:35:00
3:55 AM,28.4,28.4,100,29.75,4.0,ENE,11.5,-,N/A,,Overcast,70,2013-12-04 09:55:00
4:15 AM,28.4,28.4,100,29.72,4.0,ENE,15.0,-,N/A,,Overcast,70,2013-12-04 10:15:00
4:35 AM,28.4,28.4,100,29.75,4.0,ENE,11.5,-,N/A,,Overcast,70,2013-12-04 10:35:00
5:50 AM,28.4,28.4,100,29.73,1.2,East,10.4,-,N/A,Snow,Light Snow,80,2013-12-04 11:50:00
6:45 AM,28.4,28.4,100,29.75,1.5,East,10.4,-,N/A,,Overcast,80,2013-12-04 12:45:00
7:50 AM,28.4,28.4,100,29.72,2.0,East,11.5,-,N/A,,Overcast,80,2013-12-04 13:50:00
8:45 AM,30.2,30.2,100,29.70,3.0,East,11.5,-,N/A,,Overcast,80,2013-12-04 14:45:00
9:45 AM,30.2,30.2,100,29.70,3.0,East,11.5,-,N/A,,Overcast,90,2013-12-04 15:45:00
10:05 AM,30.2,30.2,100,29.70,1.5,East,11.5,-,N/A,,Overcast,90,2013-12-04 16:05:00
10:50 AM,32.0,32.0,100,29.69,1.5,East,11.5,-,N/A,,Overcast,90,2013-12-04 16:50:00
11:55 AM,32.0,32.0,100,29.61,1.5,East,12.7,-,N/A,,Overcast,90,2013-12-04 17:55:00
12:50 PM,32.0,32.0,100,29.54,0.5,East,11.5,16.1,N/A,,Overcast,90,2013-12-04 18:50:00
1:45 PM,33.8,33.8,100,29.51,0.2,East,13.8,20.7,N/A,Fog,Fog,90,2013-12-04 19:45:00
2:45 PM,33.8,33.8,100,29.48,1.0,East,9.2,-,N/A,,Overcast,90,2013-12-04 20:45:00
3:50 PM,33.8,33.8,100,29.46,1.0,East,11.5,-,N/A,,Overcast,100,2013-12-04 21:50:00
4:50 PM,33.8,33.8,100,29.43,1.0,East,10.4,-,N/A,Rain,Light Rain,100,2013-12-04 22:50:00
5:55 PM,35.6,35.6,100,29.39,0.8,ESE,10.4,-,N/A,Rain,Light Rain,110,2013-12-04 23:55:00
6:30 PM,35.6,35.6,100,29.39,0.4,SSE,3.5,-,N/A,Fog,Fog,150,2013-12-05 00:30:00
6:55 PM,35.6,35.6,100,29.39,0.4,South,4.6,-,N/A,Fog,Fog,170,2013-12-05 00:55:00
7:45 PM,35.6,35.6,100,29.38,0.5,WSW,9.2,-,N/A,Fog,Fog,240,2013-12-05 01:45:00
8:00 PM,35.6,35.6,100,29.38,1.5,WSW,8.1,-,N/A,,Overcast,240,2013-12-05 02:00:00
8:45 PM,33.8,33.8,100,29.39,1.5,SW,13.8,17.3,N/A,,Overcast,230,2013-12-05 02:45:00
9:00 PM,33.8,33.8,100,29.41,3.0,WSW,17.3,24.2,N/A,,Overcast,240,2013-12-05 03:00:00
9:15 PM,33.8,33.8,100,29.41,5.0,WSW,15.0,24.2,N/A,,Overcast,240,2013-12-05 03:15:00
9:35 PM,32.0,32.0,100,29.42,7.0,WSW,16.1,27.6,N/A,,Overcast,250,2013-12-05 03:35:00
9:45 PM,33.8,33.8,100,29.42,10.0,WSW,23.0,35.7,N/A,,Overcast,240,2013-12-05 03:45:00
9:55 PM,32.0,32.0,100,29.42,10.0,WSW,23.0,35.7,N/A,,Overcast,250,2013-12-05 03:55:00
10:15 PM,32.0,32.0,100,29.43,10.0,WSW,17.3,24.2,N/A,,Overcast,250,2013-12-05 04:15:00
10:35 PM,32.0,32.0,100,29.44,10.0,WSW,17.3,-,N/A,,Overcast,250,2013-12-05 04:35:00
10:55 PM,32.0,32.0,100,29.46,7.0,WSW,27.6,33.4,N/A,,Overcast,240,2013-12-05 04:55:00
11:15 PM,32.0,32.0,100,29.48,7.0,WSW,23.0,29.9,N/A,,Overcast,250,2013-12-05 05:15:00
11:55 PM,30.2,30.2,100,29.50,7.0,WSW,18.4,27.6,N/A,,Overcast,250,2013-12-05 05:55:00